Regional Weather Roundup
Issued by NWS

Home | Current Version | Previous Version | Graphics & Text | Print | Product List | Glossary On
Versions: 1 2 3 4 5 6 7 8 9 10 11 12 13 14 15 16 17 18 19 20 21 22 23 24 25 26 27 28 29 30 31 32 33 34 35 36 37 38 39 40 41 42 43 44 45 46 47 48 49 50
000
ASUS43 KLMK 261610
RWRKY
KENTUCKY REGIONAL WEATHER ROUNDUP
NATIONAL WEATHER SERVICE LOUISVILLE KY
1100 AM EST MON JAN 26 2015

NOTE "FAIR" INDICATES FEW OR NO CLOUDS BELOW 12,000 FEET
WITH NO SIGNIFICANT WEATHER AND/OR OBSTRUCTIONS TO VISIBILITY.

KYZ001>023-026-027-061>063-070>075-261700-
WESTERN AND SOUTH CENTRAL KENTUCKY

CITY           SKY/WX    TMP DP  RH WIND       PRES   REMARKS
PADUCAH        MOSUNNY   32  24  72 NW13      30.08R WCI  22
HENDERSON      CLOUDY    30  25  80 NW8       30.05R WCI  23
OWENSBORO      CLOUDY    32  27  82 NW10      30.03R WCI  24
HOPKINSVILLE   CLOUDY    32  28  84 NW8       30.03R WCI  25
BOWLING GREEN  CLOUDY    31  25  78 VRB6      30.02R WCI  25
GLASGOW        CLOUDY    30  25  83 NW10      29.99R WCI  21
$$

KYZ024-025-028>034-038-045-046-053-261700-
NORTH CENTRAL KENTUCKY

CITY           SKY/WX    TMP DP  RH WIND       PRES   REMARKS
LOUISVILLE/SDF CLOUDY    29  21  72 W13       29.99R WCI  19
LOUISVILLE/LOU CLOUDY    28  20  71 NW7G17    29.99R WCI  21
FORT KNOX      CLOUDY    27  22  80 NW9       29.97R WCI  18
$$

KYZ035>037-039>044-047>052-055>060-089>105-261700-
NORTHEAST KENTUCKY

CITY           SKY/WX    TMP DP  RH WIND       PRES   REMARKS
LEXINGTON      CLOUDY    24  20  84 NW12      29.92R WCI  13
COVINGTON      PTSUNNY   22  15  75 NW15      29.93R WCI   9
FRANKFORT      CLOUDY    25  19  78 NW9       29.93R WCI  15
$$

KYZ054-064>069-076>088-106>120-261700-
SOUTHEAST KENTUCKY

CITY           SKY/WX    TMP DP  RH WIND       PRES   REMARKS
JACKSON        CLOUDY    25  23  92 MISG      29.83R FOG
LONDON         CLOUDY    28  22  78 W12       29.88R WCI  18
SOMERSET       CLOUDY    27  23  86 NW7       29.94R WCI  19
MIDDLESBORO    CLOUDY    32  26  79 N3        29.85R
MONTICELLO     CLOUDY    28  25  89 W13       29.96R WCI  17
$$




USA.gov is the U.S. government's official web portal to all federal, state and local government web resources and services.